Location: Lecco
(45.8566°N, 9.3977°E)
Time: 16:00:27
(UTC+02:00)

ISS - Pass Details

Date: 18 July 2018
Orbit: 402 x 408 km, 51.6° (Epoch: 23 July)

Event Time Altitude Azimuth Distance (km) Brightness Sun altitude
Rises 22:16:23 0° 196° (SSW) 2,305 -0.3 -10.3°
Enters shadow 22:17:18 - 190° (S) 1,984 -0.7 -10.4°
Exits shadow 22:25:38 - 74° (ENE) 2,291 -0.3 -11.4°
Sets 22:25:48 0° 73° (ENE) 2,351 -0.2 -11.4°
